| time (UTC) | temp F | wind direction | speed knots | gust knots | rain 1hr in | rain 24hr in | rain mn in | humidity % | barometer mb |
| 20260503010003 | 50 | 0 | 0.0 | 0.0 | 0.00 | 0.21 | 0.00 | 99 | 1009.4 |
| 20260503004503 | 50 | 306 | 0.9 | 2.6 | 0.00 | 0.21 | 0.00 | 99 | 1009.5 |
| 20260503003003 | 50 | 269 | 0.9 | 1.7 | 0.00 | 0.21 | 0.00 | 99 | 1009.7 |
| 20260503001503 | 50 | 256 | 0.0 | 3.5 | 0.00 | 0.21 | 0.00 | 99 | 1009.9 |
| 20260503000218 | 50 | 0 | 0.0 | 0.0 | 0.00 | 0.21 | 0.00 | 99 | 1010.0 |
| 20260502234503 | 49 | 0 | 0.0 | 0.0 | 0.01 | 0.21 | 0.21 | 99 | 1010.1 |
| 20260502233003 | 49 | 0 | 0.0 | 0.0 | 0.01 | 0.21 | 0.21 | 99 | 1010.2 |
| 20260502231503 | 49 | 17 | 0.0 | 1.7 | 0.01 | 0.21 | 0.21 | 97 | 1010.3 |
| 20260502230216 | 49 | 125 | 0.9 | 1.7 | 0.01 | 0.21 | 0.21 | 97 | 1010.3 |
| 20260502224503 | 49 | 115 | 1.7 | 2.6 | 0.00 | 0.20 | 0.20 | 97 | 1010.3 |
| 20260502223003 | 49 | 0 | 0.0 | 0.0 | 0.00 | 0.20 | 0.20 | 97 | 1010.5 |
| 20260502221503 | 49 | 157 | 0.0 | 0.9 | 0.01 | 0.20 | 0.20 | 97 | 1010.6 |
| 20260502220003 | 49 | 174 | 0.9 | 3.5 | 0.01 | 0.20 | 0.20 | 97 | 1010.7 |
| 20260502214503 | 49 | 162 | 0.0 | 0.9 | 0.02 | 0.20 | 0.20 | 97 | 1010.7 |
| 20260502213218 | 49 | 123 | 0.0 | 1.7 | 0.02 | 0.20 | 0.20 | 97 | 1010.9 |
| 20260502211503 | 50 | 101 | 0.9 | 2.6 | 0.02 | 0.20 | 0.20 | 95 | 1011.0 |
| 20260502210215 | 50 | 123 | 0.9 | 1.7 | 0.04 | 0.20 | 0.20 | 95 | 1011.2 |
| 20260502204503 | 50 | 62 | 0.0 | 1.7 | 0.05 | 0.19 | 0.19 | 95 | 1011.2 |
| 20260502203003 | 50 | 95 | 0.0 | 1.7 | 0.04 | 0.18 | 0.18 | 95 | 1011.3 |
| 20260502201503 | 50 | 90 | 0.9 | 1.7 | 0.04 | 0.17 | 0.17 | 95 | 1011.4 |
| 20260502200003 | 50 | 0 | 0.0 | 0.0 | 0.03 | 0.16 | 0.16 | 95 | 1011.4 |
| 20260502194503 | 50 | 0 | 0.0 | 0.0 | 0.03 | 0.14 | 0.14 | 94 | 1011.2 |
| 20260502193003 | 51 | 0 | 0.0 | 0.0 | 0.06 | 0.14 | 0.14 | 94 | 1011.3 |
| 20260502191503 | 51 | 85 | 0.0 | 1.7 | 0.06 | 0.13 | 0.13 | 94 | 1011.2 |
| 20260502190003 | 52 | 0 | 0.0 | 0.0 | 0.07 | 0.13 | 0.13 | 92 | 1011.5 |
| 20260502184503 | 52 | 0 | 0.0 | 0.0 | 0.07 | 0.11 | 0.11 | 92 | 1011.6 |
| 20260502183003 | 53 | 0 | 0.0 | 0.0 | 0.06 | 0.09 | 0.09 | 92 | 1011.9 |
| 20260502181503 | 53 | 161 | 0.0 | 1.7 | 0.05 | 0.07 | 0.07 | 91 | 1012.1 |
| 20260502163003 | 59 | 0 | 0.0 | 0.0 | 0.00 | 0.01 | 0.01 | 76 | 1012.5 |
| 20260502161503 | 60 | 0 | 0.0 | 1.7 | 0.00 | 0.01 | 0.01 | 72 | 1012.6 |
| 20260502151503 | 60 | 141 | 1.7 | 4.3 | 0.00 | 0.01 | 0.01 | 66 | 1013.1 |
| 20260502123003 | 63 | 202 | 2.6 | 6.1 | 0.00 | 0.06 | 0.01 | 61 | 1014.9 |
| 20260502121503 | 61 | 187 | 1.7 | 5.2 | 0.00 | 0.06 | 0.01 | 61 | 1015.0 |
| 20260502114503 | 61 | 189 | 1.7 | 6.1 | 0.00 | 0.06 | 0.01 | 62 | 1015.6 |
| 20260502113003 | 60 | 167 | 2.6 | 6.1 | 0.00 | 0.06 | 0.01 | 67 | 1015.5 |
| 20260502111503 | 62 | 183 | 2.6 | 7.8 | 0.00 | 0.06 | 0.01 | 61 | 1015.8 |
| 20260502110216 | 61 | 213 | 3.5 | 7.0 | 0.00 | 0.06 | 0.01 | 64 | 1016.0 |
| 20260502104503 | 59 | 218 | 2.6 | 6.1 | 0.00 | 0.06 | 0.01 | 70 | 1016.3 |
| 20260502103004 | 58 | 253 | 2.6 | 7.0 | 0.00 | 0.06 | 0.01 | 71 | 1016.4 |
| 20260502091503 | 56 | 236 | 2.6 | 8.7 | 0.00 | 0.06 | 0.01 | 79 | 1017.0 |
| 20260502071503 | 48 | 0 | 0.0 | 0.0 | 0.00 | 0.06 | 0.01 | 100 | 1017.3 |
| 20260502070003 | 47 | 0 | 0.0 | 0.0 | 0.00 | 0.06 | 0.01 | 100 | 1017.2 |
| 20260502064503 | 46 | 0 | 0.0 | 0.0 | 0.00 | 0.06 | 0.01 | 100 | 1017.4 |
| 20260502063003 | 44 | 0 | 0.0 | 0.0 | 0.00 | 0.06 | 0.01 | 100 | 1017.4 |
| 20260502061503 | 43 | 0 | 0.0 | 0.0 | 0.00 | 0.06 | 0.01 | 99 | 1017.2 |
| 20260502060003 | 43 | 0 | 0.0 | 0.0 | 0.00 | 0.06 | 0.01 | 99 | 1017.2 |
| 20260502054503 | 42 | 0 | 0.0 | 0.0 | 0.00 | 0.06 | 0.01 | 99 | 1017.2 |
| 20260502053003 | 42 | 0 | 0.0 | 0.0 | 0.01 | 0.06 | 0.01 | 99 | 1017.2 |
| 20260502051503 | 42 | 0 | 0.0 | 0.0 | 0.01 | 0.06 | 0.01 | 99 | 1017.1 |
| 20260502050003 | 42 | 0 | 0.0 | 0.0 | 0.01 | 0.06 | 0.01 | 97 | 1017.2 |
| 20260502044503 | 42 | 0 | 0.0 | 0.0 | 0.01 | 0.06 | 0.01 | 97 | 1017.2 |
| 20260502043003 | 43 | 0 | 0.0 | 0.0 | 0.00 | 0.06 | 0.00 | 97 | 1017.2 |
| 20260502041503 | 44 | 243 | 0.0 | 1.7 | 0.00 | 0.06 | 0.00 | 99 | 1017.3 |
| 20260502040003 | 44 | 252 | 0.9 | 2.6 | 0.00 | 0.06 | 0.00 | 99 | 1017.4 |
| 20260502034503 | 44 | 259 | 2.6 | 5.2 | 0.00 | 0.06 | 0.00 | 99 | 1017.5 |
| 20260502033003 | 44 | 271 | 0.9 | 6.1 | 0.00 | 0.06 | 0.00 | 99 | 1017.5 |
| 20260502031503 | 45 | 268 | 2.6 | 6.1 | 0.00 | 0.06 | 0.00 | 99 | 1017.7 |
| 20260502030003 | 45 | 253 | 2.6 | 3.5 | 0.00 | 0.06 | 0.00 | 99 | 1017.8 |
| 20260502024719 | 45 | 260 | 2.6 | 3.5 | 0.00 | 0.06 | 0.00 | 99 | 1017.8 |
| 20260502023003 | 46 | 256 | 2.6 | 5.2 | 0.00 | 0.06 | 0.00 | 99 | 1017.8 |
| 20260502021716 | 46 | 257 | 5.2 | 7.8 | 0.00 | 0.06 | 0.00 | 99 | 1018.0 |
| 20260502020003 | 46 | 251 | 2.6 | 5.2 | 0.00 | 0.06 | 0.00 | 99 | 1018.0 |
| 20260502014503 | 46 | 256 | 3.5 | 5.2 | 0.00 | 0.06 | 0.00 | 99 | 1018.1 |
| 20260502013003 | 46 | 255 | 1.7 | 1.7 | 0.00 | 0.06 | 0.00 | 99 | 1018.3 |
| 20260502011503 | 47 | 256 | 2.6 | 2.6 | 0.00 | 0.06 | 0.00 | 99 | 1018.4 |